Flag for Greece Weather past 2 weeks in Iráklion, Crete, Greece

Now
81 °F

Passing clouds.


Feels Like: 85 °F
Forecast: 69 / 88 °F
Wind: 18 mph from Northwest

Location: Heraklion Airport

Current Time: Sep 21, 2014 at 5:33:07 PM

Latest Report: Sep 21, 2014 at 4:50 PM


Visibility: N/A

Pressure: 29.89 "Hg

Humidity: 74%

Dew point: 72 °F

Location of IráklionLocation

Historic Weather in Iráklion — Graph

°F

Iráklion temperature yesterday

Maximum temperature yesterday: 79 °F (at 11:50 AM)
Minimum temperature yesterday: 73 °F (at 12:20 AM)
Average temperature yesterday: 75 °F

Past Weeks' High & Low Weather Summary

 TemperatureHumidityPressure
High84 °F (Sep 12, 4:20 PM)94% (Sep 13, 5:50 AM)30.12 "Hg (Sep 13, 5:50 AM)
Low68 °F (Sep 7, 6:50 AM)54% (Sep 7, 9:50 AM)29.71 "Hg (Sep 6, 4:20 PM)
Average76 °F73%29.92 "Hg
* Reported Sep 6 4:20 PM — Sep 21 4:20 PM, Iráklion, Weather by CustomWeather, © 2014

Note: Actual official high and low records may vary slightly from our data, if they occured in-between our weather recording intervals... More about our weather records

Advertising

Iráklion weather history for previous 24 hours

 ConditionsComfort  
Time TempWeatherWind HumidityBarometerVisibility
4:20 PM
Sep 21
82 °FPassing clouds.16 mph66%29.89 "HgN/A
3:50 PM82 °FPassing clouds.15 mph66%29.89 "HgN/A
2:50 PM82 °FPassing clouds.8 mph70%29.92 "HgN/A
2:20 PM81 °FSunny.6 mph62%29.95 "Hg10 mi
1:50 PM81 °FSunny.6 mph62%29.95 "Hg10 mi
1:20 PM81 °FSunny.7 mph62%29.95 "Hg10 mi
12:50 PM81 °FSunny.6 mph62%29.95 "Hg10 mi
12:20 PM81 °FSunny.3 mph62%29.98 "Hg10 mi
11:50 AM79 °FSunny.3 mph61%29.98 "Hg10 mi
11:20 AM79 °FSunny.3 mph61%29.98 "Hg10 mi
10:50 AM79 °FSunny.3 mph61%29.98 "Hg10 mi
10:20 AM79 °FSunny.3 mph54%29.98 "Hg10 mi
9:50 AM79 °FSunny.3 mph54%29.98 "Hg10 mi
9:20 AM77 °FSunny.3 mph57%29.98 "Hg10 mi
8:50 AM73 °FSunny.7 mph65%29.95 "Hg10 mi
8:20 AM72 °FSunny.3 mph65%29.95 "Hg10 mi
7:50 AM68 °FClear.9 mph73%29.98 "Hg10 mi
7:20 AM72 °FPassing clouds.7 mph61%29.98 "HgN/A
6:50 AM68 °FClear.8 mph78%29.98 "Hg10 mi
5:50 AM68 °FClear.7 mph73%30.01 "Hg10 mi
4:50 AM68 °FClear.6 mph78%30.01 "Hg10 mi
4:20 AM68 °FClear.6 mph78%30.01 "Hg10 mi
2:50 AM68 °FClear.7 mph78%30.01 "Hg10 mi
1:50 AM70 °FClear.7 mph83%30.04 "Hg10 mi
12:50 AM70 °FClear.7 mph78%30.04 "Hg10 mi
12:20 AM72 °FClear.5 mph73%30.07 "Hg10 mi
11:20 PM
Sep 20
73 °FClear.5 mph69%30.07 "Hg10 mi
10:50 PM73 °FClear.8 mph69%30.07 "Hg10 mi
10:20 PM73 °FClear.8 mph69%30.07 "Hg10 mi
9:50 PM73 °FClear.8 mph69%30.07 "Hg10 mi
8:50 PM73 °FClear.7 mph69%30.07 "Hg10 mi
Weather by CustomWeather, © 2014

See weather overviewHow to use our weather pages